�N����,����,�~����,�C��,���x,�C��,����,���ϕ���,�ő�u�ԕ���,�ő厞����,���˗�,�I�_���x,�n�����x,�ő啗���N��,DTYPE
"22/03/16","00:10",0.0,6.9,88.5,1010.9,325.3,2.6,3.4,321.4,0.00,5.2,12.3,"00:08:16",1
"22/03/16","00:20",0.0,6.9,88.6,1010.7,325.8,2.5,3.2,338.1,0.00,5.2,12.3,"00:15:52",1
"22/03/16","00:30",0.0,6.9,88.6,1010.4,329.6,2.6,3.5,338.6,0.00,5.2,12.1,"00:25:28",1
"22/03/16","00:40",0.0,7.1,88.6,1010.9,327.4,3.1,4.2,317.1,0.00,5.4,12.2,"00:38:16",1
"22/03/16","00:50",0.0,7.1,88.5,1010.7,313.5,3.0,4.7,324.8,0.00,5.4,12.0,"00:46:32",1
"22/03/16","01:00",0.0,7.1,88.4,1010.9,317.5,2.6,4.0,333.9,0.00,5.4,12.0,"00:58:00",1
"22/03/16","01:10",0.0,7.0,88.3,1010.7,328.9,2.7,4.1,328.4,0.00,5.2,12.2,"01:05:28",1
"22/03/16","01:20",0.0,7.1,88.2,1010.7,322.8,2.6,4.3,335.1,0.00,5.3,12.2,"01:12:48",1
"22/03/16","01:30",0.0,7.2,88.0,1010.9,302.2,2.2,3.1,326.1,0.00,5.4,12.0,"01:20:08",1
"22/03/16","01:40",0.0,7.0,87.8,1010.4,295.6,1.6,2.5,314.3,0.00,5.2,11.8,"01:32:40",1
"22/03/16","01:50",0.0,7.0,87.9,1010.2,306.9,2.0,2.8,315.4,0.00,5.2,11.9,"01:42:40",1
"22/03/16","02:00",0.0,7.0,88.0,1010.2,294.8,2.2,3.5,317.7,0.00,5.2,11.7,"01:59:44",1
"22/03/16","02:10",0.0,7.1,88.0,1010.7,318.6,2.6,4.0,322.9,0.00,5.3,11.7,"02:08:48",1
"22/03/16","02:20",0.0,7.1,88.0,1010.4,298.0,1.7,3.1,330.0,0.00,5.3,11.7,"02:10:16",1
"22/03/16","02:30",0.0,7.1,88.0,1010.2,316.5,1.8,3.1,324.4,0.00,5.3,11.8,"02:21:12",1
"22/03/16","02:40",0.0,7.0,88.1,1010.2,303.5,2.0,2.6,313.7,0.00,5.2,11.7,"02:35:44",1
"22/03/16","02:50",0.0,6.9,88.1,1009.5,284.7,1.6,2.1,303.2,0.00,5.1,11.7,"02:47:52",1
"22/03/16","03:00",0.0,6.7,88.1,1009.7,305.2,1.6,2.7,323.3,0.00,4.9,11.8,"02:53:36",1
"22/03/16","03:10",0.0,6.4,88.4,1009.7,290.0,1.6,2.0,307.0,0.00,4.7,11.5,"03:04:32",1
"22/03/16","03:20",0.0,6.2,88.6,1009.3,289.8,1.5,1.9,270.8,0.00,4.5,11.7,"03:11:04",1
"22/03/16","03:30",0.0,6.1,89.0,1009.0,323.5,1.7,2.4,317.7,0.00,4.5,11.4,"03:26:32",1
"22/03/16","03:40",0.0,6.0,89.5,1009.3,310.1,2.3,3.5,316.0,0.00,4.4,11.4,"03:38:26",1
"22/03/16","03:50",0.0,6.1,89.7,1009.0,315.0,2.3,3.5,315.3,0.00,4.6,11.6,"03:42:00",1
"22/03/16","04:00",0.0,6.0,90.1,1009.3,289.5,2.2,2.8,284.8,0.00,4.5,11.3,"03:58:00",1
"22/03/16","04:10",0.0,6.2,90.3,1009.3,302.9,2.6,3.5,312.6,0.00,4.8,11.3,"04:02:40",1
"22/03/16","04:20",0.0,6.1,90.4,1008.8,283.0,1.8,2.4,300.0,0.00,4.7,11.2,"04:12:00",1
"22/03/16","04:30",0.0,6.0,90.5,1009.0,298.2,2.5,3.1,283.6,0.00,4.6,11.2,"04:25:52",1
"22/03/16","04:40",0.0,5.6,90.5,1008.8,289.1,0.8,1.8,316.9,0.00,4.2,11.1,"04:31:12",1
"22/03/16","04:50",0.0,5.7,90.8,1009.5,314.5,2.0,3.7,317.8,0.00,4.4,11.0,"04:44:16",1
"22/03/16","05:00",0.0,5.3,90.9,1009.0,325.9,1.2,2.0,326.3,0.00,4.0,11.2,"04:52:34",1
"22/03/16","05:10",0.0,5.0,91.2,1009.0,292.9,1.7,2.0,321.1,0.00,3.7,11.3,"05:03:04",1
"22/03/16","05:20",0.0,5.3,91.6,1009.3,284.4,2.0,2.9,311.4,0.00,4.1,11.2,"05:18:10",1
"22/03/16","05:30",0.0,5.3,91.6,1009.3,297.1,2.0,2.6,317.9,0.00,4.1,11.1,"05:21:44",1
"22/03/16","05:40",0.0,5.1,91.8,1009.3,322.2,1.6,2.4,325.7,0.00,3.9,11.0,"05:31:20",1
"22/03/16","05:50",0.0,4.8,92.0,1009.3,286.4,0.7,2.0,297.0,0.00,3.7,11.1,"05:40:56",1
"22/03/16","06:00",0.0,4.8,92.2,1009.7,349.1,1.3,2.6,327.5,0.00,3.7,11.0,"05:59:14",1
"22/03/16","06:10",0.0,4.3,92.6,1009.7,330.3,2.0,2.7,333.6,0.00,3.2,11.1,"06:02:16",1
"22/03/16","06:20",0.0,4.3,92.7,1009.7,307.1,1.3,2.0,315.2,0.00,3.3,10.8,"06:11:12",1
"22/03/16","06:30",0.0,4.2,92.8,1010.0,289.9,0.8,1.6,311.3,0.00,3.2,10.9,"06:22:44",1
"22/03/16","06:40",0.0,4.3,93.1,1010.2,317.7,1.1,2.2,322.0,0.00,3.3,10.8,"06:33:20",1
"22/03/16","06:50",0.0,4.1,93.2,1009.7,310.8,2.1,2.9,308.9,0.00,3.1,10.9,"06:42:24",1
"22/03/16","07:00",0.0,4.3,93.5,1009.5,290.2,1.3,2.1,295.4,0.00,3.4,10.7,"06:58:56",1
"22/03/16","07:10",0.0,4.9,93.7,1010.0,279.5,1.8,2.2,267.5,0.00,4.0,10.7,"07:08:34",1
"22/03/16","07:20",0.0,5.4,93.7,1010.0,303.2,1.6,2.2,302.3,0.01,4.5,10.7,"07:11:28",1
"22/03/16","07:30",0.0,5.7,93.8,1010.2,309.4,1.5,2.2,309.5,0.02,4.8,10.7,"07:23:28",1
"22/03/16","07:40",0.0,6.5,93.8,1010.0,295.5,1.3,2.0,311.0,0.04,5.6,10.6,"07:34:32",1
"22/03/16","07:50",0.0,7.5,93.5,1010.4,316.4,1.2,1.8,335.4,0.06,6.6,10.5,"07:48:16",1
"22/03/16","08:00",0.0,8.2,93.2,1010.7,308.6,1.2,1.8,312.8,0.08,7.2,10.5,"07:56:08",1
"22/03/16","08:10",0.0,8.9,92.7,1010.4,295.7,0.5,0.9,303.3,0.10,7.8,10.6,"08:00:16",1
"22/03/16","08:20",0.0,9.2,91.7,1011.2,248.0,0.2,0.8,281.8,0.13,8.0,10.5,"08:13:36",1
"22/03/16","08:30",0.0,9.5,90.4,1011.6,176.6,0.5,1.1,259.6,0.16,8.0,10.4,"08:26:48",1
"22/03/16","08:40",0.0,10.1,88.2,1011.9,231.9,0.5,1.3,335.0,0.18,8.3,10.6,"08:39:12",1
"22/03/16","08:50",0.0,11.0,84.4,1012.3,242.9,0.5,1.1,306.1,0.21,8.5,10.5,"08:45:12",1
"22/03/16","09:00",0.0,11.6,79.6,1012.3,244.2,0.3,0.9,107.6,0.24,8.2,10.5,"08:55:36",1
"22/03/16","09:10",0.0,12.0,73.8,1012.6,172.1,0.5,1.3,113.2,0.27,7.5,10.6,"09:04:40",1
"22/03/16","09:20",0.0,13.0,68.7,1012.6,267.5,0.3,0.9,327.8,0.30,7.4,10.5,"09:13:04",1
"22/03/16","09:30",0.0,13.5,66.4,1012.6,176.3,0.2,0.9,172.2,0.33,7.4,10.5,"09:23:20",1
"22/03/16","09:40",0.0,14.0,64.0,1012.6,208.3,0.3,1.4,121.2,0.35,7.3,10.6,"09:34:32",1
"22/03/16","09:50",0.0,14.2,61.2,1012.6,197.3,1.1,2.8,144.4,0.38,6.9,10.8,"09:48:32",1
"22/03/16","10:00",0.0,14.6,59.3,1012.1,191.9,1.2,2.5,139.9,0.40,6.8,10.7,"09:57:52",1
"22/03/16","10:10",0.0,14.8,56.5,1011.9,162.7,1.2,2.5,151.1,0.42,6.3,10.8,"10:02:16",1
"22/03/16","10:20",0.0,15.0,57.3,1011.6,187.9,1.2,2.7,130.3,0.44,6.7,11.0,"10:12:32",1
"22/03/16","10:30",0.0,15.2,54.9,1011.6,185.0,1.7,3.2,166.6,0.46,6.2,10.7,"10:29:44",1
"22/03/16","10:40",0.0,15.9,54.1,1011.6,174.0,1.1,2.9,141.9,0.48,6.7,10.7,"10:34:16",1
"22/03/16","10:50",0.0,16.1,53.6,1011.4,153.8,1.3,2.8,147.9,0.50,6.7,11.1,"10:47:44",1
"22/03/16","11:00",0.0,16.4,53.2,1011.4,185.4,1.5,3.1,243.7,0.51,6.9,11.1,"10:50:02",1
"22/03/16","11:10",0.0,16.8,55.3,1011.4,142.2,1.6,3.9,231.3,0.52,7.8,11.3,"11:00:08",1
"22/03/16","11:20",0.0,17.4,54.9,1011.4,160.6,1.8,3.1,112.2,0.53,8.3,11.1,"11:10:48",1
"22/03/16","11:30",0.0,17.6,53.5,1011.2,152.3,1.6,3.3,153.9,0.54,8.1,11.2,"11:28:00",1
"22/03/16","11:40",0.0,17.7,52.4,1010.7,142.5,1.6,3.5,136.1,0.55,7.9,11.5,"11:36:56",1
"22/03/16","11:50",0.0,17.7,54.2,1010.4,131.1,2.1,3.7,119.0,0.56,8.4,11.5,"11:48:16",1
"22/03/16","12:00",0.0,18.0,53.7,1010.4,134.7,1.7,3.6,140.1,0.57,8.5,11.7,"11:51:44",1
"22/03/16","12:10",0.0,18.9,52.2,1010.2,47.1,1.1,2.6,106.2,0.58,8.9,11.7,"12:06:56",1
"22/03/16","12:20",0.0,19.7,54.5,1010.4,163.2,1.5,3.3,129.2,0.58,10.3,11.8,"12:10:32",1
"22/03/16","12:30",0.0,20.1,54.3,1010.0,292.0,1.0,3.2,126.6,0.58,10.6,11.9,"12:21:44",1
"22/03/16","12:40",0.0,20.6,53.3,1009.7,181.2,1.6,3.3,180.8,0.57,10.8,12.1,"12:31:28",1
"22/03/16","12:50",0.0,20.6,52.4,1009.7,183.7,1.5,4.0,162.3,0.56,10.6,12.1,"12:49:36",1
"22/03/16","13:00",0.0,20.6,52.0,1009.3,186.5,2.1,5.0,140.9,0.57,10.4,12.2,"12:55:04",1
"22/03/16","13:10",0.0,21.0,50.5,1009.5,155.0,2.2,4.4,158.6,0.56,10.4,12.3,"13:01:12",1
"22/03/16","13:20",0.0,21.1,48.8,1009.0,145.4,2.6,5.8,169.3,0.56,10.0,12.6,"13:12:40",1
"22/03/16","13:30",0.0,21.5,52.7,1008.8,145.4,2.5,5.6,131.5,0.55,11.5,12.6,"13:27:52",1
"22/03/16","13:40",0.0,21.8,50.8,1008.8,136.6,3.7,7.5,132.6,0.55,11.2,12.8,"13:39:28",1
"22/03/16","13:50",0.0,21.5,50.3,1008.8,130.6,3.4,7.9,158.7,0.51,10.8,13.1,"13:49:04",1
"22/03/16","14:00",0.0,21.5,50.0,1008.6,134.7,3.5,5.8,127.3,0.51,10.7,13.0,"13:52:16",1
"22/03/16","14:10",0.0,21.8,49.4,1008.3,212.2,2.6,5.7,221.0,0.50,10.8,13.2,"14:08:16",1
"22/03/16","14:20",0.0,21.9,47.3,1008.1,173.4,2.6,5.5,130.7,0.47,10.2,13.3,"14:17:20",1
"22/03/16","14:30",0.0,21.9,47.7,1008.1,144.1,3.1,5.4,124.4,0.46,10.4,13.2,"14:21:28",1
"22/03/16","14:40",0.0,21.9,46.3,1008.3,173.1,2.8,4.9,161.8,0.44,9.9,13.3,"14:30:56",1
"22/03/16","14:50",0.0,21.9,46.6,1008.6,168.7,3.2,5.2,130.9,0.41,10.0,13.5,"14:47:12",1
"22/03/16","15:00",0.0,21.9,46.2,1007.8,165.1,2.6,4.8,182.0,0.38,9.9,13.7,"14:52:56",1
"22/03/16","15:10",0.0,22.2,44.7,1007.8,167.7,2.6,5.1,130.7,0.39,9.7,13.8,"15:07:28",1
"22/03/16","15:20",0.0,22.2,44.5,1007.8,166.5,2.6,4.9,127.7,0.37,9.6,13.8,"15:18:40",1
"22/03/16","15:30",0.0,22.0,43.9,1007.6,171.2,2.8,5.6,118.5,0.35,9.2,14.0,"15:28:32",1
"22/03/16","15:40",0.0,22.0,43.8,1007.8,160.4,2.5,4.7,140.9,0.33,9.2,14.0,"15:34:40",1
"22/03/16","15:50",0.0,21.6,43.5,1007.8,164.2,3.2,5.7,149.7,0.30,8.7,14.1,"15:40:08",1
"22/03/16","16:00",0.0,21.5,43.9,1007.6,160.7,3.0,4.8,152.0,0.27,8.8,14.2,"15:52:16",1
"22/03/16","16:10",0.0,21.5,43.6,1007.8,168.4,2.6,4.1,127.6,0.24,8.7,14.2,"16:01:04",1
"22/03/16","16:20",0.0,21.4,43.6,1007.8,183.9,2.8,5.9,222.9,0.22,8.6,14.4,"16:14:24",1
"22/03/16","16:30",0.0,21.5,43.1,1008.1,174.8,2.0,4.2,176.2,0.19,8.5,14.3,"16:21:28",1
"22/03/16","16:40",0.0,21.7,44.2,1008.1,167.6,1.5,3.3,118.4,0.16,9.0,14.4,"16:31:36",1
"22/03/16","16:50",0.0,21.4,42.8,1008.3,185.5,2.2,4.1,193.6,0.14,8.3,14.4,"16:49:28",1
"22/03/16","17:00",0.0,21.1,42.5,1008.3,185.2,2.2,3.9,211.9,0.11,7.9,14.4,"16:51:36",1
"22/03/16","17:10",0.0,21.1,43.0,1008.6,186.4,1.8,4.1,146.1,0.09,8.1,14.2,"17:06:16",1
"22/03/16","17:20",0.0,20.6,42.8,1008.6,156.4,2.5,5.1,124.5,0.07,7.6,14.4,"17:17:52",1
"22/03/16","17:30",0.0,20.0,43.7,1008.6,119.4,2.6,5.2,124.8,0.05,7.3,14.4,"17:22:32",1
"22/03/16","17:40",0.0,19.3,44.6,1008.8,124.4,3.0,4.9,116.6,0.03,7.0,14.6,"17:32:32",1
"22/03/16","17:50",0.0,19.0,46.2,1009.3,128.0,2.2,3.7,120.6,0.02,7.2,14.0,"17:41:44",1
"22/03/16","18:00",0.0,18.7,46.0,1009.0,108.2,1.7,2.9,107.9,0.01,6.9,14.2,"17:52:00",1
"22/03/16","18:10",0.0,18.2,47.2,1009.0,111.5,1.7,2.7,123.3,0.00,6.8,14.2,"18:06:32",1
"22/03/16","18:20",0.0,17.8,47.9,1009.7,35.7,1.0,2.6,117.0,0.00,6.7,14.4,"18:10:32",1
"22/03/16","18:30",0.0,17.3,48.8,1010.2,28.7,0.6,1.7,44.0,0.00,6.5,14.3,"18:26:24",1
"22/03/16","18:40",0.0,16.9,50.6,1010.0,63.5,0.7,1.8,108.6,0.00,6.6,14.4,"18:39:36",1
"22/03/16","18:50",0.0,16.5,51.9,1010.0,94.6,1.0,1.6,104.2,0.00,6.6,14.4,"18:46:48",1
"22/03/16","19:00",0.0,16.2,53.5,1010.7,14.6,0.8,1.7,333.3,0.00,6.8,14.5,"18:58:40",1
"22/03/16","19:10",0.0,15.5,57.9,1010.7,283.6,1.3,1.8,257.8,0.00,7.3,14.2,"19:03:04",1
"22/03/16","19:20",0.0,15.1,61.8,1010.9,310.4,1.8,2.8,315.6,0.00,7.9,14.4,"19:18:16",1
"22/03/16","19:30",0.0,14.5,64.3,1010.7,319.3,1.7,2.6,323.5,0.00,7.9,14.3,"19:21:28",1
"22/03/16","19:40",0.0,14.2,65.6,1010.9,275.1,1.5,2.1,250.4,0.00,7.9,14.1,"19:32:48",1
"22/03/16","19:50",0.0,14.0,62.5,1011.4,328.0,1.6,2.8,320.0,0.00,7.0,14.0,"19:40:40",1
"22/03/16","20:00",0.0,13.9,60.6,1011.4,335.0,1.3,2.5,330.0,0.00,6.5,13.9,"19:55:14",1
"22/03/16","20:10",0.0,14.0,54.6,1011.6,335.5,1.3,4.0,343.1,0.00,5.0,14.0,"20:07:14",1
"22/03/16","20:20",0.0,14.9,48.6,1011.9,343.5,2.2,4.4,346.7,0.00,4.2,14.0,"20:14:06",1
"22/03/16","20:30",0.0,15.0,46.6,1012.1,343.3,2.6,5.1,333.4,0.00,3.7,14.0,"20:29:22",1
"22/03/16","20:40",0.0,15.0,46.0,1012.3,332.2,3.4,4.5,337.3,0.00,3.5,13.8,"20:30:48",1
"22/03/16","20:50",0.0,14.7,46.6,1012.6,337.6,2.7,5.4,325.6,0.00,3.4,13.8,"20:47:52",1
"22/03/16","21:00",0.0,14.6,47.1,1012.6,343.6,2.1,4.0,343.9,0.00,3.5,13.5,"20:54:04",1
"22/03/16","21:10",0.0,14.1,49.6,1012.6,308.9,2.0,4.1,323.9,0.00,3.8,13.8,"21:03:20",1
"22/03/16","21:20",0.0,13.9,50.1,1012.8,319.2,2.6,3.6,292.9,0.00,3.7,13.7,"21:15:28",1
"22/03/16","21:30",0.0,14.2,49.5,1012.6,343.0,2.8,5.2,344.2,0.00,3.8,13.6,"21:23:42",1
"22/03/16","21:40",0.0,14.0,51.0,1012.8,336.0,2.7,4.8,322.0,0.00,4.1,13.4,"21:31:44",1
"22/03/16","21:50",0.0,13.9,52.3,1013.0,334.5,2.5,4.4,334.1,0.00,4.3,13.3,"21:46:42",1
"22/03/16","22:00",0.0,13.3,54.5,1013.5,316.8,1.8,3.4,330.8,0.00,4.4,13.5,"21:51:28",1
"22/03/16","22:10",0.0,12.4,57.7,1013.0,281.5,1.6,2.0,298.0,0.00,4.3,13.5,"22:01:34",1
"22/03/16","22:20",0.0,11.7,60.4,1013.3,292.1,1.5,1.8,294.8,0.00,4.3,13.2,"22:12:34",1
"22/03/16","22:30",0.0,11.5,61.6,1013.0,285.7,1.3,2.0,253.0,0.00,4.4,13.1,"22:20:08",1
"22/03/16","22:40",0.0,11.1,62.9,1012.8,295.6,1.2,1.4,266.3,0.00,4.3,13.2,"22:30:24",1
"22/03/16","22:50",0.0,11.0,64.4,1013.3,300.9,1.2,1.8,306.1,0.00,4.6,13.2,"22:47:12",1
"22/03/16","23:00",0.0,10.9,65.6,1012.8,305.3,1.5,1.9,314.4,0.00,4.8,13.1,"22:58:16",1
"22/03/16","23:10",0.0,10.7,66.6,1013.3,302.7,1.6,2.1,285.3,0.00,4.8,13.2,"23:08:32",1
"22/03/16","23:20",0.0,10.5,66.7,1013.3,302.4,1.5,2.0,308.4,0.00,4.6,13.1,"23:11:12",1
"22/03/16","23:30",0.0,10.1,66.7,1013.5,298.3,1.0,1.3,296.0,0.00,4.2,13.0,"23:20:56",1
"22/03/16","23:40",0.0,10.1,67.5,1012.8,307.0,1.5,1.9,265.0,0.00,4.4,13.0,"23:31:44",1
"22/03/16","23:50",0.0,10.0,68.6,1013.3,297.6,1.7,2.2,310.5,0.00,4.5,12.8,"23:49:20",1
"22/03/16","24:00",0.0,10.1,68.7,1013.3,319.4,2.2,3.6,316.6,0.00,4.7,12.9,"23:53:20",1
